Regional Weather Roundup
Issued by NWS Albany, NY

Home | Current Version | Previous Version | Text Only | Print | Product List | Glossary On
Versions: 1 2 3 4 5 6 7 8 9 10 11 12 13 14 15 16 17 18 19 20 21 22 23 24 25 26 27 28 29 30 31 32 33 34 35 36 37 38 39 40 41 42 43 44 45 46 47 48 49 50
000
ASUS41 KALY 080110
RWRALY

NEW YORK STATE HOURLY WEATHER ROUNDUP
NATIONAL WEATHER SERVICE ALBANY NY
800 PM EST SUN FEB 07 2016

NOTE: "FAIR" INDICATES FEW OR NO CLOUDS BELOW 12,000 FEET WITH NO
SIGNIFICANT WEATHER AND/OR NO OBSTRUCTIONS TO VISIBILITY.

NYZ032-033-038>043-046>054-057>066-NYZ062>081-080200-
EAST


CITY           SKY/WX    TMP DP  RH WIND       PRES   REMARKS
ALBANY         CLOUDY    36  21  54 NE6       30.05R WCI  31
GLENS FALLS    PTCLDY    29  22  75 NE7       30.08R WCI  22
POUGHKEEPSIE   PTCLDY    33  21  61 N3        30.00F
NEWBURGH       PTCLDY    39  23  52 VRB6      30.01F WCI  35
MONTGOMERY     CLOUDY    29  23  78 N5        29.98F WCI  24
WHITE PLAINS   MOCLDY    37  21  52 E6        29.98F WCI  32
ISLIP          CLOUDY    37  30  75 NE10      29.98F WCI  30
NEW YORK CITY  CLOUDY    40  30  67 NE8       30.00F WCI  34
CENTRAL PARK   CLOUDY    40  25  55 E9        30.01F WCI  34
$$

NYZ005>009-017-018-044>046-055-056-080200-
CENTRAL


CITY           SKY/WX    TMP DP  RH WIND       PRES   REMARKS
FULTON         CLEAR     37  24  59 E5        29.97F WCI  33
SYRACUSE       CLOUDY    33  24  69 E8        29.96F WCI  26
ROME           CLOUDY    35  23  61 E8        30.01F WCI  29
ELMIRA         CLOUDY    30  24  78 CALM      29.94F
BINGHAMTON     CLOUDY    38  20  48 CALM      29.94R
MONTICELLO     CLOUDY    34  19  55 NE3       29.97F
$$

NYZ026>034-041>043-080200-
NORTH


CITY           SKY/WX    TMP DP  RH WIND       PRES   REMARKS
WATERTOWN      PTCLDY    32  25  75 NE7       29.99F WCI  26
FORT DRUM      NOT AVBL
MASSENA        CLOUDY    19   5  54 E16       30.13F WCI   4
SARANAC LAKE   CLOUDY    21  17  84 NE6       30.00F WCI  13
PLATTSBURGH    CLOUDY    19   5  54 N12       30.15F WCI   7
$$

NYZ001>004-010>016-019>021-080200-
WEST


CITY           SKY/WX    TMP DP  RH WIND       PRES   REMARKS
NIAGARA FALLS  PTCLDY    43  26  51 SE5       29.87F
BUFFALO        PTCLDY    42  26  53 SE7       29.88S
DUNKIRK        CLOUDY    42  26  53 S6        29.87F
JAMESTOWN      CLEAR     39  21  48 S7        29.86S WCI  34
WELLSVILLE     CLOUDY    37  23  56 S6        29.90F WCI  32
ROCHESTER      CLOUDY    40  26  57 SE10      29.92F WCI  33
PENN YAN       CLEAR     29  23  78 S3        29.93F
$$

             KEY
       WCI = WIND CHILL INDEX
       VSB = VISIBILITY
       HX  = HEAT INDEX
$$




USA.gov is the U.S. government's official web portal to all federal, state and local government web resources and services.